Location: Unspecified
(0.0000°N, 0.0000°E)
Time: 07:49:19
(UTC+00:00)

deb Midas III - Pass Details

Date: 17 March 2026
Orbit: 3314 x 3545 km, 91.1° (Epoch: 18 April)

Event Time Altitude Azimuth Distance (km) Brightness Sun altitude
Rises 03:23:29 0° 198° (SSW) 7,609 ? -41.2°
Reaches altitude 10° 03:28:50 10° 208° (SSW) 6,568 ? -39.9°
Enters shadow 03:31:49 16° 216° (SW) 6,062 ? -39.1°
Exits shadow 03:59:56 - 322° (NW) 6,917 ? -32.1°
Sets 04:02:39 0° 327° (NNW) 7,433 ? -31.4°
